Wind_Speed
31 32 31 29 28 27 28 27 26 24 22 19 18 18 18 15 11 9 8 8 12 17 18 18 18 17 17 17 17 17 17 17 17 16 15 15 14 13 12 11 10 9 9 9 10 10 9 8 7 8 9 6 5 5 5 8 9 7 7 6 6 8 10 9 11 14 16 16 17 18 18 20 22 21 22 24 25 26 29 32 33 33 34 35 36
32 30 28 27 28 30 30 29 27 25 23 21 20 20 19 15 12 10 8 9 14 18 18 18 17 17 17 17 17 17 17 17 17 16 15 14 13 13 12 11 9 9 9 9 9 9 9 9 8 8 8 8 6 4 4 7 6 5 5 5 6 7 9 10 10 14 17 18 18 18 18 19 21 21 21 23 25 26 29 32 32 33 34 35 36
30 27 27 29 31 32 31 29 27 26 24 22 21 21 20 17 14 11 9 11 17 18 18 18 17 17 17 17 18 17 16 17 16 15 14 13 12 12 12 11 10 10 9 8 8 9 9 9 8 7 7 6 6 4 5 7 5 4 5 6 7 8 10 10 11 13 17 19 19 18 19 19 20 21 22 23 24 27 30 32 32 34 36 37 36
29 28 30 31 31 31 30 29 28 27 25 24 23 22 20 17 14 11 10 14 19 18 18 18 17 17 17 17 18 17 16 16 15 15 14 13 12 11 11 10 10 9 8 8 8 8 8 8 7 6 5 4 4 3 3 5 5 4 6 6 7 9 11 10 11 13 16 19 19 19 19 20 20 21 22 23 25 28 29 30 33 37 38 37 35
28 28 30 31 31 32 31 29 29 28 26 25 25 23 20 15 12 12 12 16 20 19 18 17 17 18 17 17 17 16 15 15 15 15 14 13 12 11 10 10 10 10 9 8 8 8 7 6 5 4 3 3 2 1 2 4 5 4 6 7 7 10 12 11 12 13 15 18 19 20 19 19 20 21 21 24 28 29 28 29 36 41 40 37 33
28 27 30 32 33 34 32 30 29 29 28 27 26 23 18 12 11 12 13 17 20 19 19 17 16 17 16 16 16 15 15 14 14 14 14 14 13 12 12 11 10 10 9 8 8 8 7 6 5 5 5 4 2 1 2 4 5 5 7 8 9 11 12 12 13 14 15 17 18 19 19 20 21 21 21 25 28 29 29 33 38 40 38 37 35
27 27 31 34 35 34 31 29 29 29 28 28 26 22 17 12 11 13 15 18 20 19 18 17 15 15 15 15 14 14 13 13 13 13 14 14 14 13 13 11 10 10 9 7 7 7 7 6 5 5 5 4 3 1 2 4 5 6 7 9 10 12 13 13 14 14 15 16 17 18 19 20 20 21 24 26 26 27 31 36 40 39 35 34 35
28 28 30 33 34 32 30 28 27 28 28 27 25 21 15 12 13 15 17 19 20 19 18 17 16 14 13 13 13 13 13 13 13 13 13 14 14 13 13 12 11 10 10 8 8 7 7 6 5 5 4 3 1 1 2 4 6 6 8 9 11 12 13 14 13 14 16 16 17 18 20 21 20 22 25 26 25 29 33 36 38 39 36 34 34
29 29 29 31 31 30 29 28 27 27 27 27 25 19 14 13 16 17 19 22 23 22 20 20 18 14 12 12 11 12 13 13 14 15 13 14 14 13 13 12 11 10 9 9 8 8 6 5 5 4 2 1 0 2 3 5 6 8 9 10 12 13 14 14 14 15 18 19 18 19 20 21 22 24 26 25 26 31 36 35 34 36 37 35 34
27 28 29 30 30 30 30 28 27 28 28 26 24 19 14 15 18 20 21 25 27 25 23 22 20 17 15 16 15 14 14 14 16 17 16 14 14 13 12 12 10 9 9 8 8 7 6 6 4 3 3 2 1 2 4 5 7 8 10 10 11 13 14 15 17 18 20 21 21 21 21 21 23 25 25 25 27 32 35 35 34 36 36 36 35
28 29 29 29 29 31 31 30 28 28 27 26 24 20 16 16 19 21 22 24 27 26 23 22 22 21 21 21 21 20 19 18 19 19 19 17 14 12 12 11 10 9 8 8 7 6 7 6 5 3 2 1 1 2 3 5 6 7 9 10 12 14 15 16 18 20 22 23 24 23 21 22 25 25 24 26 30 33 34 34 34 35 36 37 38
25 26 27 29 31 31 31 29 28 28 28 27 25 23 19 18 21 22 21 23 25 25 24 22 22 23 23 23 23 21 21 21 20 19 18 17 16 14 11 10 10 9 8 7 6 6 7 7 6 3 1 2 3 4 4 5 6 7 10 13 15 16 17 18 19 21 22 23 24 23 21 23 26 26 25 28 32 33 34 35 34 34 35 35 37
23 23 24 28 29 29 28 27 27 28 26 25 24 22 20 22 25 23 21 23 26 26 25 23 23 25 25 24 23 21 22 21 19 18 18 17 17 16 11 9 10 9 7 7 8 8 8 6 4 3 3 3 3 3 5 6 7 8 11 14 16 17 19 20 20 22 24 23 22 23 23 23 25 27 28 30 33 34 35 36 36 35 35 35 37
23 22 23 24 25 27 27 26 27 28 26 23 22 22 22 25 26 23 21 24 26 26 25 23 24 24 24 23 21 20 21 20 18 19 18 17 18 17 12 8 9 8 8 11 12 12 9 6 4 5 5 4 3 3 4 6 7 8 10 11 13 15 17 18 20 24 25 24 23 23 23 23 25 28 29 30 33 34 36 39 39 36 35 36 37
24 23 23 21 23 27 28 28 29 28 25 22 23 25 25 26 26 24 23 24 25 25 24 23 24 24 23 22 20 19 20 21 19 19 18 18 19 18 14 9 8 10 12 14 13 11 10 10 9 7 6 5 4 4 5 6 8 8 8 9 11 12 12 14 19 22 23 23 23 23 23 23 25 27 29 31 32 34 36 38 36 33 34 35 35
25 23 23 23 26 29 30 30 30 27 23 24 26 27 27 27 26 25 23 24 25 25 24 24 24 23 23 21 19 19 22 21 20 19 19 19 19 20 16 11 11 13 14 12 10 9 10 10 8 6 6 6 5 5 6 7 8 8 8 10 12 11 10 14 19 21 22 22 22 22 22 23 24 27 29 31 33 35 37 36 32 31 33 34 34
26 23 24 27 31 32 31 31 29 26 24 26 28 28 28 27 25 24 23 25 26 26 25 24 23 23 23 21 19 19 22 22 20 20 20 20 20 20 16 12 12 12 11 10 9 9 11 10 8 7 7 6 5 5 6 7 7 8 8 10 12 11 12 16 20 21 21 21 21 22 23 25 27 29 30 31 33 34 34 32 31 31 33 33 34
30 28 28 31 33 33 32 31 29 27 27 28 29 30 29 27 25 24 24 26 26 25 24 23 22 23 23 22 20 19 21 21 20 20 20 20 19 18 15 10 9 9 9 10 9 10 11 10 8 8 8 6 6 6 6 7 7 8 9 10 11 12 14 18 20 21 21 21 22 24 25 26 26 27 27 29 31 32 30 30 31 31 31 33 35
36 34 31 32 32 32 32 31 30 30 29 29 30 29 27 26 25 25 25 25 25 24 21 19 21 24 23 21 21 21 21 21 21 21 20 19 18 17 14 9 8 9 9 10 10 10 11 9 8 8 8 6 6 7 7 7 7 9 10 11 11 14 16 18 19 21 23 24 24 23 23 23 23 23 24 26 29 30 29 30 30 30 31 33 34
34 34 33 33 32 32 32 31 32 32 30 29 28 27 27 27 27 28 27 24 22 23 22 20 21 23 23 22 23 24 23 22 21 21 20 19 18 18 16 10 8 10 10 9 10 11 11 9 8 8 8 7 7 7 7 7 8 9 10 11 11 14 16 17 18 22 25 24 23 22 21 21 21 22 23 25 27 29 31 32 31 29 30 32 33
27 31 35 35 34 33 32 31 31 29 28 28 28 28 29 30 29 29 27 23 22 24 25 24 23 23 23 23 24 24 23 22 21 21 20 19 18 18 18 14 9 10 11 10 10 11 9 8 9 8 7 7 8 8 8 8 8 9 10 11 11 12 15 17 20 23 22 21 20 20 20 21 21 22 23 24 26 30 32 33 32 30 30 31 31
25 30 35 36 35 33 32 31 29 26 26 27 27 27 29 28 26 26 25 23 24 25 25 24 23 22 22 23 23 23 23 22 21 21 20 20 19 19 19 17 14 13 11 10 10 10 8 8 11 11 8 7 9 9 8 8 8 9 10 10 11 11 14 17 20 19 18 18 18 19 20 20 21 22 23 24 26 29 31 32 32 31 30 29 29
23 26 29 31 34 34 32 31 29 26 25 25 25 25 25 25 25 26 27 26 25 24 24 23 23 23 24 24 24 23 23 21 20 21 20 20 19 19 19 19 18 17 13 11 11 9 7 11 16 13 9 9 10 9 9 9 9 9 10 11 11 11 14 17 16 15 16 16 17 19 19 20 21 22 24 26 27 28 29 30 32 32 32 31 30
22 20 20 23 28 31 31 31 29 27 25 24 24 24 25 27 28 26 25 24 24 24 24 25 25 25 25 25 24 24 23 21 20 21 20 19 19 19 20 19 19 19 17 12 10 10 12 15 16 12 9 10 10 9 9 8 8 9 10 11 11 11 12 14 13 14 15 15 17 19 19 20 21 22 24 27 27 27 28 30 32 32 32 33 32
24 22 23 22 21 23 26 29 29 27 24 24 26 27 28 30 28 24 22 24 26 26 25 26 27 25 24 22 22 23 23 21 20 20 20 19 19 19 19 19 19 20 20 16 15 17 19 17 14 10 9 10 9 9 9 8 8 9 9 11 12 10 8 10 13 13 14 15 17 18 18 20 21 22 24 26 26 26 27 29 32 32 32 34 34
28 27 26 23 19 19 23 26 27 26 24 25 27 27 28 29 26 24 25 27 27 27 27 27 26 24 21 20 21 22 22 21 20 20 19 20 20 19 19 19 19 20 22 20 19 19 17 15 12 10 10 9 9 7 6 7 8 8 8 9 11 8 6 10 13 12 12 14 16 17 18 19 21 21 23 25 26 26 27 29 31 31 32 34 35
28 26 24 22 21 22 23 23 24 25 26 27 27 27 28 28 26 26 28 28 26 25 27 28 26 22 20 20 20 21 21 21 21 20 20 20 19 19 19 19 19 20 21 20 17 15 14 13 11 10 10 9 8 6 6 8 9 8 8 10 10 8 9 11 13 11 11 14 16 16 17 19 20 21 22 24 25 26 26 29 30 31 32 33 33
26 26 24 23 23 23 23 22 22 25 27 27 28 28 29 29 27 27 28 28 26 27 28 27 25 23 22 21 19 19 20 20 21 22 21 19 18 18 19 19 19 20 19 18 16 14 13 13 11 10 9 9 8 8 10 11 10 8 8 9 9 9 10 11 12 10 11 14 15 15 17 19 19 21 22 24 25 26 26 29 31 31 32 33 32
27 26 25 25 24 23 23 22 23 25 27 28 29 30 30 29 28 26 26 26 27 27 28 28 27 25 23 21 19 19 20 21 22 21 19 18 17 17 17 18 18 18 18 17 16 14 13 11 9 8 9 9 10 11 11 10 9 9 9 10 10 9 9 10 10 9 11 14 14 15 17 18 19 20 22 24 25 25 26 29 31 31 30 32 33
27 27 26 26 26 25 24 24 25 26 28 29 31 30 29 27 27 25 25 26 27 26 26 27 27 24 20 18 18 20 20 21 22 20 18 17 16 16 17 17 17 18 18 17 16 14 13 11 10 9 10 11 11 12 11 10 10 10 10 11 10 10 9 10 10 10 12 14 14 14 17 18 18 20 21 23 25 25 26 27 30 30 30 30 33
28 28 27 27 26 25 25 25 26 28 28 28 30 30 29 28 27 26 25 27 27 25 25 25 24 22 20 17 17 19 18 17 19 19 17 15 16 18 19 18 18 18 16 15 15 14 13 13 12 11 11 11 12 12 12 12 12 12 11 11 11 10 11 11 10 11 13 13 13 15 17 17 18 20 21 22 23 24 25 26 27 29 29 29 32
29 28 27 26 25 24 24 25 27 28 29 30 31 31 30 30 29 28 27 26 25 25 24 24 24 24 23 20 18 20 20 18 18 19 16 15 17 19 20 19 17 17 16 15 15 15 14 12 11 10 10 11 12 12 13 12 12 12 12 12 11 11 11 11 10 12 13 13 14 15 16 16 18 19 20 21 21 22 23 24 26 28 28 29 32
27 26 25 25 24 24 26 27 28 29 30 31 31 32 31 31 30 30 28 27 25 25 25 25 24 23 23 22 21 20 21 22 22 20 18 16 18 20 19 18 17 17 17 16 16 16 14 13 12 11 11 12 12 12 13 12 12 12 12 12 12 11 11 11 11 12 12 12 14 15 15 16 17 18 19 20 20 21 22 23 25 27 28 29 32
24 23 22 23 24 25 26 28 29 29 29 29 30 31 31 29 27 28 30 29 28 27 26 26 25 22 21 23 23 21 21 23 24 22 20 19 19 19 19 18 17 18 18 18 17 17 16 15 14 12 12 13 13 12 12 12 12 12 12 12 12 12 11 10 11 11 11 12 13 14 15 16 16 16 18 20 20 21 21 21 24 27 28 29 30
21 21 21 22 23 25 27 29 30 30 30 31 32 31 29 26 22 24 28 31 32 31 29 28 27 25 22 23 24 24 23 23 23 23 21 20 20 20 19 18 17 18 18 18 18 18 17 17 15 13 12 13 13 13 13 13 12 12 12 12 12 11 11 11 11 10 11 12 13 14 15 16 15 15 18 19 20 20 20 20 24 28 30 31 29
19 19 20 22 24 25 27 29 30 31 31 32 31 30 29 27 24 22 24 26 30 32 32 30 29 27 25 25 25 26 26 25 23 23 23 22 22 21 20 19 18 18 18 18 18 19 19 18 16 14 13 14 14 13 13 13 13 12 12 12 12 12 11 11 10 10 11 12 14 14 15 15 14 15 17 18 18 19 19 20 24 28 31 30 28
19 19 20 22 24 25 26 27 28 29 30 30 30 29 28 27 24 22 20 20 23 28 30 30 30 30 29 29 28 27 28 28 26 26 26 25 24 22 21 21 20 18 18 18 18 18 19 19 17 15 15 15 14 14 14 13 13 13 13 13 13 13 12 12 12 13 14 14 15 15 14 14 15 15 16 17 18 18 18 20 24 29 30 29 26
18 18 20 22 23 24 25 25 26 28 28 28 28 26 23 22 21 21 21 21 21 23 24 26 27 30 32 33 32 30 29 30 30 31 30 30 28 26 24 23 21 19 17 17 17 17 18 17 16 16 15 15 15 14 14 14 13 13 13 13 13 13 13 14 15 15 14 14 14 14 13 14 15 15 16 16 17 18 19 21 25 27 26 26 26
19 18 19 21 22 23 25 25 26 27 27 27 26 22 19 20 21 22 22 22 21 22 22 23 23 25 28 32 35 34 33 33 34 35 34 32 31 29 26 24 22 19 17 16 16 16 17 16 16 16 16 15 15 14 14 14 14 13 13 13 13 13 13 14 13 13 12 13 13 13 13 14 15 15 15 16 17 18 21 22 23 22 22 25 27
20 19 19 20 21 22 24 25 26 26 27 28 26 22 20 21 22 21 21 21 21 21 22 22 22 22 25 30 34 36 36 37 37 37 35 34 32 30 27 24 23 20 19 18 17 17 17 17 16 16 16 15 15 15 14 14 14 13 13 13 13 13 13 13 13 13 13 14 13 13 14 15 15 15 15 17 18 20 21 20 19 19 22 25 27
19 20 20 20 20 21 22 23 25 26 27 27 25 22 20 21 21 21 20 20 20 19 20 22 21 20 22 27 30 32 35 37 37 36 36 34 32 30 27 25 24 22 20 19 19 18 18 17 16 16 16 15 15 14 14 14 13 13 13 13 13 13 13 13 14 14 14 14 14 15 15 15 15 15 17 19 19 20 18 18 19 22 24 25 26
19 22 22 21 21 22 22 23 24 25 25 25 25 23 22 21 20 20 20 19 19 19 19 21 20 19 21 25 25 26 30 34 35 36 36 34 32 30 28 26 24 23 21 20 19 19 19 18 17 17 16 16 15 14 14 14 14 14 14 13 14 14 14 14 14 14 15 15 15 16 16 15 16 17 18 19 19 19 18 19 21 22 22 23 24
17 21 24 23 23 23 22 22 23 23 23 24 23 22 21 20 20 20 20 19 20 19 18 19 19 19 21 24 23 22 26 32 34 33 33 31 28 27 27 26 25 23 22 21 20 19 18 18 18 18 17 16 16 15 15 15 15 15 14 14 14 15 15 15 15 16 15 15 15 15 16 16 16 17 18 18 18 19 19 20 21 21 20 21 23
17 20 22 23 24 24 23 23 23 23 24 24 22 20 20 19 19 19 19 19 19 19 19 19 19 18 20 23 24 23 25 28 29 28 26 25 24 22 22 23 22 21 21 21 20 20 19 19 19 19 18 17 16 16 15 15 15 14 15 15 15 16 16 17 17 17 16 16 16 16 16 16 16 17 18 19 19 20 20 21 21 21 22 24 26
17 19 21 23 24 24 24 23 23 22 22 22 21 20 19 19 18 18 19 19 19 19 20 19 18 18 19 22 25 27 27 26 25 24 23 22 22 21 20 19 18 19 19 20 20 20 20 20 21 21 20 19 18 17 16 15 15 16 16 16 17 17 17 17 17 17 17 17 16 16 15 16 17 19 20 21 21 22 22 22 23 24 25 26 27
16 16 19 22 23 24 24 24 23 21 21 21 21 19 19 20 19 18 18 19 18 18 19 18 18 18 19 19 23 27 28 27 26 25 24 22 21 20 20 18 17 17 18 19 20 20 20 21 22 22 21 21 20 18 17 17 17 17 17 17 17 17 17 17 17 16 16 16 16 16 18 19 21 23 23 23 24 24 23 23 24 25 26 27 27
15 15 18 21 23 24 23 23 23 23 22 23 22 20 18 19 20 19 18 18 17 17 17 17 17 18 18 18 21 25 28 29 30 30 30 28 24 21 19 18 18 18 19 19 20 20 20 21 22 23 23 23 22 20 19 18 18 17 17 17 17 17 16 16 15 15 14 14 16 19 22 23 23 23 22 22 22 23 23 23 24 25 26 26 26
14 14 16 20 22 24 24 23 24 24 22 21 22 21 19 19 19 18 17 18 18 19 19 17 16 17 18 18 19 22 26 29 31 32 31 28 24 21 20 21 21 20 19 19 20 20 20 21 22 23 24 26 25 23 21 20 19 18 18 17 17 17 18 17 16 16 16 17 19 22 25 25 24 23 21 21 22 23 23 24 24 25 26 26 27
15 16 18 20 22 25 26 27 28 27 26 25 26 26 26 24 21 18 18 22 24 24 22 19 18 18 18 18 18 19 20 24 29 32 29 24 21 21 22 23 22 21 21 21 21 22 22 23 23 23 24 26 26 25 24 22 21 20 19 18 18 19 20 20 19 19 19 20 22 23 24 25 24 23 22 21 22 23 23 24 25 27 28 28 29
20 21 21 21 23 25 26 28 29 30 29 28 28 28 28 26 24 21 22 23 23 22 21 19 19 20 19 19 19 19 18 21 27 31 29 25 22 21 22 22 23 23 23 24 23 23 23 23 23 23 24 25 25 23 21 20 20 19 18 19 20 21 21 21 20 20 20 21 22 22 23 24 23 22 22 23 24 24 25 26 27 28 29 30 30
21 19 18 19 22 23 22 23 26 27 28 29 29 27 25 24 23 22 21 20 18 18 20 21 22 23 21 19 19 21 20 20 23 26 27 25 23 22 22 22 22 22 23 23 23 23 22 21 21 21 22 23 24 22 21 20 20 19 19 20 21 21 21 21 21 21 21 21 22 22 22 22 22 22 23 24 24 26 27 27 28 29 30 31 31
Wind_Direction
195 198 198 197 194 192 195 195 194 197 198 197 198 200 204 207 214 237 256 243 208 191 185 186 186 183 180 177 176 175 172 171 168 165 166 164 158 153 148 144 148 150 148 148 144 138 130 123 123 121 117 111 81 63 63 63 54 41 32 20 357 352 354 345 322 323 341 344 333 329 327 326 328 328 325 324 325 327 330 330 329 328 326 324 324
196 196 195 195 196 196 196 196 195 196 197 197 200 203 205 208 218 237 250 227 198 186 185 187 184 182 178 175 175 174 173 174 171 166 165 163 159 154 149 148 153 153 149 147 145 140 133 128 126 122 117 111 98 82 84 77 51 24 26 8 345 343 340 339 327 317 327 338 332 325 324 321 322 326 325 322 323 325 327 329 329 327 326 324 321
191 190 193 196 198 198 198 195 193 195 198 197 199 203 206 208 216 232 239 210 188 181 186 185 179 178 176 173 174 173 175 175 170 166 164 162 162 157 153 155 155 151 145 143 144 139 134 133 128 118 105 94 85 69 77 83 59 11 14 4 338 337 340 336 327 314 314 323 327 324 321 321 322 323 324 323 323 324 326 329 329 329 330 327 321
187 192 197 197 196 197 197 195 193 195 197 197 200 202 204 207 213 222 221 197 183 181 185 181 177 176 174 175 176 174 176 175 169 166 163 161 162 158 157 157 150 145 145 144 144 140 134 131 125 115 101 89 76 52 65 81 65 12 0 1 337 334 346 344 325 313 310 314 320 322 321 322 323 323 325 325 324 324 326 327 328 332 334 330 323
187 191 196 196 193 194 196 197 195 194 195 198 201 202 201 202 205 213 207 187 180 184 183 175 176 178 174 175 177 175 177 176 171 169 165 162 163 160 158 158 154 156 159 157 153 146 141 136 130 125 115 105 98 79 76 73 64 30 3 4 351 344 356 354 330 316 313 312 316 320 322 324 324 325 328 327 326 327 326 326 332 338 338 331 325
187 187 192 194 191 193 198 198 194 193 194 198 200 199 197 191 190 202 197 182 181 185 179 173 176 178 175 175 177 177 177 174 173 172 167 165 165 164 165 165 166 165 160 157 156 151 151 153 148 152 153 147 148 122 63 53 52 30 7 6 3 358 0 355 338 325 319 317 318 321 324 326 327 327 329 328 328 328 327 327 334 340 337 330 326
186 186 191 192 191 196 199 195 193 195 196 197 197 195 192 183 179 189 184 178 183 184 176 172 173 172 172 174 175 175 173 171 174 174 171 170 170 171 173 171 171 167 156 155 160 157 157 159 164 174 168 158 148 105 36 26 33 22 6 5 3 1 0 353 343 334 326 322 322 324 326 328 330 328 328 330 329 329 330 330 334 336 332 326 325
183 184 187 191 195 199 196 191 195 199 196 195 195 192 187 173 173 182 181 180 185 180 173 173 172 170 173 173 173 175 173 171 173 174 174 176 176 177 176 172 173 172 163 164 169 163 159 165 184 189 171 155 141 62 23 12 18 12 4 3 1 360 1 355 344 335 332 330 328 329 329 331 331 328 329 332 331 330 334 332 329 329 328 324 324
180 180 184 192 197 196 191 191 196 197 195 195 193 188 177 167 176 187 185 185 185 178 176 180 173 166 170 169 171 179 176 175 178 174 176 182 181 178 176 174 176 175 169 174 174 163 170 190 191 185 181 172 107 21 8 4 7 6 2 1 359 359 0 359 350 342 343 342 336 334 334 332 331 329 330 333 330 330 336 334 326 325 325 323 324
182 183 188 195 196 192 190 191 195 196 195 194 190 183 172 170 184 194 193 193 193 186 185 185 174 171 180 180 183 188 185 189 191 180 176 181 181 181 180 176 177 177 174 180 180 171 189 215 202 179 203 211 67 17 6 6 5 2 359 356 356 357 356 356 353 349 349 347 343 341 336 329 329 330 330 329 329 332 337 335 327 326 326 324 324
186 190 194 197 197 194 191 189 194 196 193 191 190 188 181 178 189 201 205 203 201 198 198 198 193 194 196 195 198 197 193 200 202 191 182 179 176 180 184 178 177 183 181 183 193 190 195 219 234 220 220 260 342 353 3 10 4 359 355 349 349 352 351 349 350 351 349 346 346 344 334 326 329 332 328 328 333 338 339 334 328 326 326 325 324
186 189 192 196 198 197 192 190 195 194 190 194 200 203 203 202 204 211 213 207 204 205 208 209 208 205 199 199 201 198 198 204 205 197 192 186 179 177 180 183 180 183 188 187 197 210 207 218 238 249 284 303 318 333 343 353 353 350 351 349 346 345 343 342 345 349 349 345 345 344 335 329 332 334 332 333 338 342 339 333 329 326 324 323 320
180 179 186 194 197 196 194 193 195 194 195 202 207 206 208 214 216 216 212 206 204 208 211 210 207 203 199 200 200 199 204 208 202 197 197 195 187 174 169 192 191 181 193 197 195 209 215 222 243 265 284 291 310 330 332 337 342 345 349 348 342 335 334 337 339 342 345 344 342 341 338 335 335 337 340 342 343 341 335 332 332 328 322 320 317
178 176 183 189 193 198 200 199 199 200 204 208 206 202 205 215 219 217 213 208 206 208 212 209 204 202 200 199 198 202 210 208 200 198 196 193 192 178 165 189 200 186 199 210 206 207 209 205 218 251 271 284 300 312 321 330 336 345 347 336 326 325 327 329 331 334 339 340 337 336 338 339 340 344 347 347 344 339 334 334 335 329 320 317 317
178 179 181 181 188 196 200 202 203 206 208 208 204 203 209 216 219 218 216 211 207 207 208 204 201 200 200 200 198 204 212 207 200 200 196 190 193 186 172 176 198 203 213 216 211 209 211 203 201 219 244 259 280 301 318 326 329 342 345 325 321 328 323 315 320 327 331 334 333 332 334 339 344 347 350 350 345 340 337 336 333 325 318 318 319
181 181 181 184 192 197 200 205 207 208 210 208 205 206 213 218 219 218 213 207 206 207 205 202 202 201 201 200 197 202 213 209 199 199 198 191 191 191 183 183 199 211 219 219 208 208 218 212 202 216 241 254 271 294 310 318 325 337 340 327 328 336 323 312 320 330 332 332 330 329 334 342 347 350 353 352 346 340 336 334 329 323 321 321 322
183 182 183 193 199 201 204 208 208 209 212 209 205 208 213 217 218 214 207 204 206 207 204 203 203 201 200 197 194 204 214 209 199 200 200 193 192 194 192 194 203 210 218 217 208 214 222 213 203 215 233 253 271 289 305 313 324 334 334 334 337 337 324 319 327 335 334 331 333 338 344 346 346 346 347 347 344 339 334 329 326 326 325 324 324
193 196 197 201 203 204 207 209 209 211 212 208 207 209 209 210 212 209 204 203 205 203 201 201 201 201 201 197 196 208 214 207 201 203 201 195 195 195 191 193 202 206 217 215 205 218 230 221 213 223 233 251 272 285 299 308 326 337 336 340 340 331 325 330 336 337 338 343 349 349 345 340 337 336 335 337 340 338 332 326 326 328 327 325 325
203 206 207 207 207 208 211 211 211 213 211 208 209 210 207 207 207 203 200 201 201 198 195 194 197 200 199 197 201 210 213 208 204 205 201 197 196 191 181 186 209 208 213 217 207 218 236 231 221 235 246 259 273 282 295 311 331 339 340 344 336 329 334 340 340 342 351 358 353 342 336 334 332 330 329 332 336 338 335 332 330 329 326 325 325
206 208 208 208 209 212 214 214 216 216 212 208 208 207 205 204 203 199 198 196 194 193 191 192 199 202 199 201 209 215 214 209 205 205 201 195 196 191 176 177 215 216 208 214 213 218 236 240 232 236 247 261 273 282 296 314 331 339 345 345 336 334 340 342 347 359 3 356 342 333 334 335 333 332 332 332 335 340 345 343 336 330 327 325 325
196 202 207 207 208 212 217 220 221 219 214 210 208 205 205 205 203 200 197 192 190 194 197 199 202 203 203 207 212 216 216 209 203 203 200 194 196 194 179 171 195 213 209 209 213 218 232 247 248 243 246 262 274 285 299 313 330 341 344 344 341 341 343 349 3 10 359 341 335 337 338 338 338 337 337 335 335 342 347 345 337 331 329 326 325
188 199 205 206 209 214 219 223 222 219 216 214 211 210 210 207 204 200 194 190 194 200 201 201 201 202 208 212 213 216 218 212 203 201 199 196 196 196 191 184 184 195 204 206 211 216 218 229 242 249 256 268 275 285 297 309 327 338 341 344 347 345 350 4 13 4 343 334 339 342 340 342 342 341 340 338 337 339 341 339 336 334 332 330 327
188 197 202 206 212 217 222 224 223 218 215 215 214 213 209 203 200 199 196 197 201 201 198 199 200 202 209 212 212 216 218 213 206 201 199 199 199 199 202 200 191 186 190 199 209 211 206 221 237 248 258 267 275 286 296 308 325 336 343 348 348 348 3 15 9 346 333 338 342 342 343 346 344 342 342 340 338 338 337 337 339 339 337 335 332
186 192 197 203 209 213 217 222 222 217 212 211 210 208 203 198 198 202 202 202 202 198 197 200 203 206 211 212 211 215 217 212 207 205 202 201 202 205 206 206 202 192 183 184 201 205 207 225 239 248 256 264 276 287 291 304 326 339 348 352 353 2 13 10 351 333 334 340 341 342 344 344 343 343 342 341 341 341 339 340 343 343 340 337 336
187 191 198 204 210 211 212 215 216 213 210 208 206 204 202 201 203 205 201 198 199 200 202 205 207 208 209 206 207 213 216 212 208 208 206 203 204 208 208 206 208 202 189 184 197 206 214 228 240 248 255 263 275 285 292 308 328 343 351 350 355 7 7 345 332 331 336 339 340 342 342 342 343 342 341 342 344 344 343 344 345 344 342 340 340
196 199 204 212 219 219 215 213 211 210 208 207 206 204 204 205 207 205 198 197 201 204 205 206 206 204 200 198 201 209 213 213 210 208 207 206 204 206 207 204 204 206 204 204 210 215 222 231 237 242 252 263 273 287 310 322 327 337 339 335 345 354 329 317 325 328 331 337 339 339 340 340 340 341 342 344 345 346 346 346 345 344 344 343 341
202 205 209 214 220 221 217 212 209 207 206 206 205 205 206 209 210 206 200 199 200 200 204 205 201 196 194 194 199 207 212 214 215 210 205 205 205 204 204 204 203 205 210 215 221 223 224 227 234 243 253 262 270 288 325 329 329 336 326 317 324 317 294 308 325 324 324 333 335 335 337 339 339 341 344 345 345 346 347 347 346 346 346 344 343
205 210 214 216 218 219 216 212 208 205 204 205 205 206 207 209 210 207 203 201 199 199 203 203 197 195 196 194 194 202 207 210 215 213 205 202 204 205 205 205 205 206 209 212 215 220 223 227 234 244 253 267 280 293 309 315 317 317 301 289 292 289 288 308 322 317 318 327 329 331 335 337 339 341 343 344 345 345 347 350 350 348 347 347 346
209 212 215 217 218 216 211 206 204 202 202 203 205 208 210 210 208 207 205 204 206 206 207 206 203 200 199 195 191 196 202 207 214 215 207 202 203 206 207 207 206 206 208 209 211 216 223 230 239 251 262 272 277 279 284 287 284 281 276 274 279 283 286 301 308 304 312 322 325 329 333 335 336 340 341 342 343 344 347 353 353 350 349 350 349
207 209 211 212 213 210 206 202 200 200 202 204 206 209 212 212 209 207 207 209 213 213 211 212 210 202 195 194 197 201 205 214 219 215 207 204 205 205 207 209 208 207 209 211 214 217 221 226 235 247 256 260 261 261 264 264 265 270 273 275 278 278 281 291 296 297 308 317 319 324 329 331 333 336 338 338 341 344 348 352 353 352 351 351 351
206 207 208 209 208 205 203 202 201 200 202 206 207 207 208 208 206 208 212 217 220 217 214 214 210 199 189 190 203 208 206 211 220 219 210 205 206 206 208 211 211 212 213 214 218 222 224 228 232 237 244 252 256 257 258 261 265 268 271 274 274 274 280 287 290 295 304 312 316 320 325 328 330 332 333 334 338 343 346 349 351 352 351 350 351
210 208 210 212 210 207 205 205 203 201 201 205 207 207 207 205 203 208 216 222 224 221 217 216 213 205 194 190 202 212 207 202 213 221 216 209 208 209 211 214 214 215 215 217 220 225 229 234 239 243 246 250 253 254 255 260 264 266 269 273 273 274 278 281 286 294 302 309 314 318 323 326 328 329 331 333 337 341 343 346 349 351 351 352 353
212 211 210 209 207 208 208 206 204 203 203 206 208 210 213 212 210 212 216 219 221 221 220 220 221 218 208 200 203 213 212 206 210 218 219 215 212 211 214 217 216 216 218 220 224 228 230 233 239 244 248 250 251 253 255 257 261 266 269 272 273 275 277 279 285 294 300 306 313 317 321 325 327 329 331 333 336 338 339 343 348 350 349 350 352
211 212 209 205 205 208 210 208 206 204 205 208 210 213 215 215 215 217 217 215 216 217 219 221 223 222 216 209 209 214 216 215 216 220 222 220 216 214 217 219 219 220 221 222 226 230 231 233 234 236 244 249 250 252 254 256 261 266 269 271 274 276 276 277 284 292 297 305 313 316 318 322 324 326 329 331 332 335 336 339 344 348 351 351 350
212 213 212 211 211 212 211 209 206 205 206 209 212 213 211 206 203 211 218 219 217 216 217 219 219 217 215 213 212 215 218 219 219 219 220 220 216 215 217 219 221 224 226 226 229 232 234 236 236 234 241 247 249 251 254 256 260 264 267 271 273 274 274 277 282 288 295 303 310 313 314 319 321 323 327 330 332 334 335 335 341 348 353 355 352
208 208 208 211 213 215 214 210 205 204 207 210 212 213 212 207 203 206 215 220 221 221 221 221 221 218 216 215 215 216 220 222 220 217 217 218 217 217 219 222 226 230 233 235 235 236 237 238 235 234 240 246 248 251 253 257 260 263 266 270 271 272 275 276 276 282 291 298 304 306 310 314 318 322 327 329 331 333 333 332 338 347 354 355 352
209 206 203 205 210 213 213 209 204 204 208 212 214 214 214 212 210 208 209 213 219 222 222 222 222 221 219 217 216 216 219 222 221 218 217 217 217 219 222 225 229 234 240 243 243 242 242 242 237 235 239 244 248 251 254 257 261 263 266 269 269 270 271 268 268 278 289 294 297 301 307 313 317 321 325 326 328 332 331 330 338 349 354 352 347
211 210 204 201 203 207 208 206 205 207 211 213 213 213 212 209 207 208 208 211 215 216 213 213 219 223 222 220 217 215 216 219 219 217 216 216 217 220 222 225 229 233 238 245 246 242 241 241 238 237 240 243 247 251 254 256 260 263 266 269 268 268 269 268 271 280 289 294 296 300 307 313 316 319 322 322 324 329 329 330 338 345 346 343 341
211 211 205 200 200 204 205 205 206 209 213 213 208 203 202 203 204 206 209 211 213 212 209 208 212 217 222 224 220 215 214 217 216 215 215 216 218 221 224 226 230 233 234 238 239 236 235 236 236 236 240 243 247 250 254 257 260 262 265 267 267 267 268 270 273 279 284 288 293 297 303 309 313 316 319 320 322 325 325 328 333 336 334 335 340
209 204 199 199 201 204 206 207 207 209 212 211 205 199 200 205 207 208 209 210 211 210 208 208 208 209 218 228 227 220 215 215 214 213 215 217 219 221 225 228 231 232 234 236 236 234 235 236 235 237 240 243 247 251 253 256 259 261 263 264 265 266 268 269 271 275 278 283 289 293 297 303 309 313 315 317 319 320 322 324 327 328 329 335 340
210 204 197 198 202 204 205 206 207 210 213 211 205 200 203 207 208 208 208 208 209 208 207 210 211 211 219 232 235 228 220 217 215 214 217 220 222 223 226 230 232 232 234 236 235 234 235 235 237 240 242 245 249 251 252 255 259 261 262 263 262 264 268 270 272 275 279 281 285 289 291 295 300 305 311 316 318 318 318 320 323 326 330 335 339
210 204 197 198 202 203 204 205 206 209 215 216 211 206 206 209 209 207 206 206 208 210 210 213 213 213 219 231 237 233 224 219 218 218 219 222 223 225 228 232 233 232 234 236 236 235 234 235 238 241 243 245 248 250 252 256 258 259 261 262 262 264 267 269 272 276 279 281 285 288 290 292 294 300 307 312 315 315 314 314 318 321 325 330 333
207 204 199 199 201 201 201 205 206 207 213 217 215 209 206 208 210 209 207 207 210 212 210 209 207 208 217 226 232 231 223 218 218 219 220 222 225 229 232 233 233 232 233 234 234 233 233 237 241 243 244 246 248 250 254 257 258 258 258 259 261 264 267 270 272 275 278 283 286 287 289 291 294 299 304 307 309 311 313 314 316 317 317 320 325
209 210 201 197 202 203 201 203 206 209 214 217 214 207 205 207 210 210 209 209 210 208 205 204 204 208 216 224 226 223 218 214 214 215 216 217 221 227 230 231 229 228 230 232 232 229 231 237 241 243 245 246 248 251 254 255 256 258 259 260 264 266 268 270 273 275 276 280 284 286 287 290 293 297 302 305 307 309 311 312 313 314 314 317 322
211 215 204 199 203 205 204 206 211 213 216 216 212 207 207 207 207 208 208 207 207 207 208 210 211 210 213 219 223 221 216 210 208 209 212 215 217 220 222 224 224 224 226 229 229 229 232 238 243 246 248 246 245 248 252 255 257 259 260 263 266 267 268 271 273 275 276 278 279 282 285 288 292 295 299 303 306 308 309 310 311 313 315 318 322
201 207 204 202 204 205 206 208 210 207 207 209 206 204 206 207 207 208 209 209 209 211 213 214 214 211 209 213 220 222 218 210 204 205 207 207 210 215 219 222 225 225 225 227 229 231 236 241 245 248 248 246 245 249 253 257 259 260 262 264 265 266 269 271 271 275 279 277 274 279 288 294 297 299 301 305 309 311 312 313 313 315 318 320 322
190 198 200 200 203 205 205 205 204 203 206 210 208 205 208 211 211 210 210 210 213 216 215 213 213 213 211 209 215 223 224 217 211 211 212 211 214 220 224 226 227 228 229 231 234 238 242 246 247 247 246 246 249 253 255 257 260 262 263 264 264 263 267 269 268 272 278 276 274 283 294 300 302 302 303 306 310 312 312 312 312 314 316 317 318
190 196 196 197 201 203 201 202 204 204 204 206 205 202 202 204 205 207 210 211 212 212 211 209 210 213 211 209 215 228 233 228 221 219 219 220 222 225 227 230 233 233 234 237 239 242 245 248 249 249 248 251 256 260 258 257 260 262 261 262 262 261 262 265 267 271 276 277 280 287 294 298 300 301 302 306 309 310 311 312 312 313 314 313 313
192 194 194 196 202 205 208 211 212 208 203 202 204 204 204 200 196 197 206 212 213 214 213 212 211 212 212 211 215 225 233 231 224 220 218 218 219 222 227 233 236 236 237 241 243 244 245 246 247 248 250 255 262 265 262 258 258 259 259 260 261 261 263 266 270 274 278 280 283 288 292 295 297 299 301 304 306 306 307 308 310 312 313 313 314
203 204 203 205 208 211 214 218 219 217 213 212 213 213 213 209 203 201 207 213 217 218 217 214 212 212 213 214 215 215 220 226 226 222 218 216 219 223 227 231 232 233 236 241 244 244 245 247 248 249 250 255 260 262 258 255 255 257 258 258 260 263 267 272 276 279 281 284 286 289 290 292 294 297 300 302 303 303 305 308 310 312 313 313 315
217 218 214 213 214 215 216 219 223 223 221 220 219 218 216 213 211 210 210 210 210 210 212 214 217 219 219 218 216 213 213 218 221 218 214 215 219 224 227 229 231 233 236 240 242 243 243 245 247 250 252 255 259 260 257 255 256 257 257 259 261 265 270 275 279 281 283 285 287 288 289 289 291 293 296 298 300 302 304 306 307 308 309 311 312
Height
1502 1505 1507 1510 1513 1515 1517 1519 1521 1523 1524 1526 1528 1529 1531 1532 1533 1534 1535 1535 1535 1536 1537 1538 1539 1540 1541 1542 1543 1544 1545 1545 1546 1547 1548 1549 1549 1550 1550 1551 1552 1552 1553 1553 1553 1553 1554 1554 1554 1554 1554 1554 1554 1553 1553 1552 1551 1551 1551 1550 1550 1549 1548 1547 1545 1543 1541 1539 1537 1535 1533 1531 1528 1526 1523 1520 1518 1515 1511 1508 1504 1500 1496 1491 1487
1500 1503 1505 1508 1510 1512 1515 1517 1519 1521 1523 1525 1526 1528 1529 1531 1532 1533 1534 1534 1535 1536 1537 1538 1539 1540 1541 1542 1543 1544 1544 1545 1546 1547 1547 1548 1549 1549 1550 1551 1552 1552 1553 1553 1553 1553 1553 1554 1554 1554 1554 1554 1554 1553 1553 1552 1552 1552 1551 1550 1550 1549 1547 1546 1545 1543 1540 1538 1536 1534 1532 1530 1527 1524 1522 1519 1516 1513 1510 1506 1502 1499 1495 1490 1486
1498 1501 1503 1506 1508 1510 1513 1515 1517 1520 1521 1523 1525 1526 1528 1529 1531 1532 1532 1533 1534 1536 1537 1538 1539 1540 1541 1542 1542 1543 1544 1545 1546 1546 1547 1548 1549 1549 1550 1551 1552 1552 1553 1553 1553 1553 1553 1554 1554 1554 1554 1554 1554 1553 1552 1551 1552 1551 1551 1550 1549 1548 1547 1545 1544 1542 1540 1537 1535 1533 1531 1529 1526 1523 1521 1519 1515 1512 1508 1504 1500 1497 1493 1488 1483
1497 1499 1501 1503 1506 1509 1511 1513 1516 1518 1519 1522 1523 1525 1526 1528 1530 1531 1531 1533 1534 1535 1536 1537 1539 1539 1540 1541 1542 1543 1543 1544 1545 1546 1546 1547 1548 1549 1550 1551 1552 1552 1553 1553 1553 1553 1553 1554 1554 1554 1555 1554 1554 1553 1552 1551 1551 1551 1550 1549 1549 1547 1546 1544 1543 1542 1539 1536 1534 1532 1530 1528 1525 1523 1520 1517 1514 1511 1506 1502 1498 1494 1490 1486 1481
1494 1496 1498 1501 1504 1507 1509 1511 1514 1516 1518 1520 1521 1523 1525 1527 1528 1529 1530 1532 1533 1534 1535 1537 1538 1539 1540 1541 1542 1542 1543 1544 1544 1545 1546 1547 1548 1549 1550 1551 1551 1552 1552 1553 1553 1554 1554 1554 1554 1555 1555 1554 1553 1553 1552 1551 1550 1550 1550 1549 1548 1547 1545 1543 1542 1541 1539 1536 1533 1531 1529 1527 1524 1521 1519 1516 1511 1507 1504 1501 1497 1491 1487 1483 1480
1492 1494 1496 1499 1502 1504 1506 1509 1512 1514 1516 1518 1520 1522 1524 1526 1527 1528 1530 1531 1532 1533 1535 1537 1538 1538 1540 1541 1541 1542 1543 1543 1544 1545 1545 1546 1547 1548 1549 1550 1551 1551 1552 1553 1553 1553 1554 1554 1554 1554 1554 1553 1553 1552 1551 1551 1550 1549 1549 1548 1547 1545 1544 1542 1541 1540 1538 1536 1533 1530 1528 1526 1523 1520 1518 1514 1510 1505 1501 1498 1494 1490 1485 1480 1476
1490 1491 1494 1496 1499 1501 1504 1507 1510 1512 1514 1516 1518 1521 1523 1525 1526 1527 1529 1530 1531 1533 1535 1536 1538 1539 1540 1541 1542 1542 1543 1544 1544 1545 1545 1546 1547 1548 1548 1549 1550 1551 1552 1552 1553 1553 1554 1554 1554 1554 1553 1552 1552 1552 1551 1550 1549 1549 1548 1547 1546 1544 1543 1541 1540 1539 1537 1535 1532 1530 1527 1524 1522 1519 1516 1513 1509 1505 1500 1494 1489 1486 1484 1479 1474
1487 1489 1491 1494 1497 1499 1502 1505 1508 1510 1512 1515 1517 1519 1521 1524 1525 1526 1527 1529 1530 1532 1533 1535 1537 1539 1540 1541 1542 1543 1543 1544 1544 1544 1545 1546 1546 1547 1548 1548 1549 1550 1551 1552 1552 1553 1553 1553 1553 1553 1552 1552 1551 1551 1550 1550 1549 1548 1547 1546 1545 1543 1542 1541 1539 1538 1536 1534 1531 1529 1526 1523 1521 1518 1514 1511 1507 1504 1500 1494 1488 1483 1480 1477 1473
1485 1487 1489 1491 1494 1497 1500 1503 1506 1508 1511 1513 1516 1518 1520 1522 1523 1524 1525 1526 1528 1529 1531 1532 1535 1538 1540 1541 1543 1544 1544 1544 1544 1544 1545 1546 1546 1547 1548 1548 1549 1550 1551 1551 1552 1552 1553 1552 1552 1552 1551 1551 1551 1550 1550 1549 1548 1547 1546 1545 1544 1542 1541 1540 1538 1537 1534 1532 1530 1527 1525 1522 1520 1516 1513 1510 1506 1502 1498 1494 1489 1483 1479 1475 1471
1482 1485 1487 1489 1492 1495 1498 1501 1504 1506 1509 1511 1514 1516 1518 1520 1521 1521 1522 1523 1524 1526 1528 1530 1533 1536 1537 1538 1540 1541 1543 1544 1543 1543 1544 1545 1546 1547 1547 1548 1549 1549 1550 1551 1551 1552 1552 1552 1551 1551 1551 1550 1550 1550 1549 1548 1547 1547 1546 1545 1543 1542 1540 1539 1537 1535 1533 1531 1529 1526 1523 1521 1519 1516 1512 1509 1506 1502 1497 1493 1488 1483 1478 1472 1468
1480 1482 1485 1487 1490 1493 1496 1499 1502 1505 1507 1509 1511 1514 1516 1517 1518 1519 1520 1521 1523 1524 1526 1528 1530 1532 1533 1534 1535 1537 1539 1541 1541 1542 1543 1544 1545 1546 1547 1548 1548 1549 1550 1551 1551 1552 1552 1552 1551 1550 1550 1549 1549 1549 1548 1548 1547 1546 1545 1544 1542 1541 1540 1538 1536 1534 1532 1530 1528 1526 1523 1520 1517 1515 1512 1508 1504 1500 1496 1492 1488 1483 1478 1472 1466
1479 1481 1483 1486 1488 1491 1494 1497 1500 1503 1505 1507 1509 1511 1514 1515 1516 1517 1518 1520 1522 1523 1525 1526 1527 1529 1531 1532 1534 1536 1536 1538 1540 1541 1542 1543 1544 1545 1546 1547 1548 1549 1550 1551 1552 1552 1551 1551 1550 1550 1550 1549 1549 1548 1547 1547 1546 1545 1544 1543 1541 1540 1539 1537 1535 1533 1532 1529 1527 1525 1523 1519 1516 1513 1511 1507 1503 1499 1495 1492 1488 1483 1478 1473 1467
1478 1480 1482 1484 1487 1489 1493 1495 1498 1500 1502 1505 1508 1510 1512 1513 1513 1515 1517 1518 1520 1522 1523 1524 1526 1527 1529 1531 1533 1535 1535 1537 1538 1540 1541 1542 1543 1544 1546 1547 1547 1549 1550 1551 1552 1551 1550 1550 1550 1550 1549 1549 1548 1548 1547 1546 1545 1544 1543 1542 1540 1539 1537 1536 1534 1532 1530 1528 1526 1524 1522 1519 1515 1512 1510 1506 1501 1498 1494 1491 1487 1483 1478 1474 1469
1476 1479 1480 1483 1486 1488 1491 1493 1496 1498 1500 1503 1506 1508 1509 1510 1510 1512 1514 1516 1518 1520 1522 1523 1525 1526 1528 1530 1532 1533 1534 1536 1537 1538 1539 1541 1542 1543 1544 1546 1547 1548 1549 1549 1549 1549 1549 1550 1550 1550 1549 1548 1547 1547 1546 1546 1545 1544 1543 1542 1541 1539 1537 1535 1533 1531 1530 1528 1526 1523 1521 1518 1515 1511 1508 1505 1501 1498 1494 1489 1485 1481 1478 1474 1469
1474 1477 1479 1482 1484 1486 1489 1491 1493 1495 1498 1501 1504 1506 1507 1507 1508 1510 1512 1514 1517 1519 1521 1522 1524 1526 1528 1530 1531 1532 1533 1534 1536 1537 1538 1539 1541 1542 1543 1545 1546 1547 1547 1547 1547 1548 1548 1549 1549 1549 1548 1547 1547 1546 1546 1545 1544 1543 1543 1542 1541 1540 1538 1536 1534 1532 1530 1528 1525 1523 1520 1518 1514 1511 1508 1505 1501 1498 1495 1490 1485 1481 1478 1473 1468
1472 1475 1477 1479 1481 1484 1487 1489 1491 1494 1497 1499 1501 1503 1504 1505 1505 1507 1509 1513 1516 1518 1520 1521 1523 1525 1527 1529 1530 1531 1531 1532 1534 1535 1537 1538 1539 1540 1541 1543 1545 1545 1545 1546 1547 1547 1547 1547 1548 1548 1547 1546 1546 1546 1545 1544 1544 1543 1542 1541 1540 1539 1538 1536 1534 1532 1530 1527 1525 1522 1519 1517 1514 1510 1507 1504 1500 1497 1493 1489 1486 1482 1478 1472 1467
1470 1472 1475 1476 1479 1482 1485 1486 1489 1492 1494 1497 1499 1501 1502 1503 1504 1506 1508 1511 1514 1517 1519 1520 1522 1524 1525 1527 1529 1529 1529 1531 1533 1534 1535 1536 1538 1539 1541 1542 1543 1544 1545 1545 1546 1546 1546 1546 1547 1547 1546 1546 1545 1545 1544 1544 1543 1542 1541 1540 1539 1538 1537 1535 1532 1530 1528 1526 1523 1520 1517 1514 1512 1509 1506 1503 1500 1497 1493 1489 1485 1482 1477 1471 1466
1467 1469 1472 1475 1477 1480 1483 1485 1488 1490 1492 1495 1496 1498 1500 1502 1504 1506 1508 1510 1513 1515 1517 1519 1521 1522 1524 1526 1527 1528 1528 1530 1532 1533 1534 1535 1536 1538 1540 1541 1543 1544 1544 1545 1545 1545 1545 1545 1545 1546 1545 1545 1544 1544 1544 1543 1542 1541 1540 1539 1538 1537 1536 1533 1531 1529 1527 1524 1521 1518 1515 1513 1511 1509 1506 1504 1501 1497 1494 1490 1486 1481 1477 1472 1467
1464 1467 1470 1473 1476 1479 1481 1484 1486 1488 1490 1493 1494 1496 1499 1501 1503 1505 1508 1510 1512 1515 1517 1519 1520 1520 1522 1524 1525 1525 1526 1528 1530 1531 1533 1534 1535 1537 1539 1541 1543 1543 1544 1544 1545 1545 1544 1544 1544 1544 1544 1544 1544 1543 1543 1542 1541 1540 1539 1538 1537 1536 1534 1532 1529 1527 1524 1520 1518 1517 1516 1514 1512 1509 1507 1504 1501 1498 1494 1490 1486 1482 1478 1473 1468
1463 1466 1469 1472 1475 1478 1480 1482 1484 1486 1489 1491 1493 1496 1498 1500 1501 1504 1506 1509 1511 1513 1515 1517 1519 1519 1521 1522 1523 1523 1524 1526 1528 1530 1532 1533 1534 1535 1537 1540 1542 1543 1543 1543 1544 1544 1543 1543 1543 1543 1543 1543 1543 1542 1542 1541 1540 1539 1538 1536 1536 1534 1532 1531 1529 1525 1521 1519 1519 1518 1516 1514 1512 1509 1507 1504 1500 1497 1493 1489 1485 1483 1479 1473 1469
1462 1464 1467 1470 1474 1476 1478 1481 1482 1485 1488 1490 1492 1494 1496 1498 1500 1502 1505 1507 1509 1510 1513 1515 1517 1518 1519 1520 1522 1522 1523 1525 1527 1529 1530 1532 1533 1534 1535 1537 1540 1542 1542 1543 1544 1544 1543 1542 1542 1542 1542 1542 1542 1541 1541 1540 1539 1538 1537 1536 1534 1533 1531 1530 1526 1523 1522 1522 1521 1519 1516 1514 1512 1509 1506 1503 1500 1496 1492 1488 1485 1483 1479 1474 1470
1460 1462 1465 1469 1472 1474 1477 1479 1481 1484 1486 1488 1490 1492 1494 1497 1499 1501 1504 1505 1506 1509 1512 1514 1515 1516 1518 1519 1520 1521 1522 1523 1525 1527 1529 1530 1531 1533 1534 1535 1537 1539 1540 1542 1543 1543 1543 1543 1541 1541 1541 1541 1541 1540 1540 1539 1538 1537 1536 1535 1533 1532 1531 1528 1525 1523 1524 1523 1521 1518 1516 1514 1511 1509 1506 1503 1499 1495 1491 1488 1485 1482 1478 1475 1471
1459 1461 1465 1467 1470 1473 1475 1477 1480 1482 1484 1486 1489 1491 1493 1496 1499 1500 1501 1502 1505 1508 1511 1512 1513 1514 1516 1517 1519 1520 1521 1522 1524 1526 1527 1529 1530 1531 1532 1534 1535 1536 1538 1541 1542 1543 1543 1541 1539 1539 1540 1540 1540 1539 1538 1538 1537 1536 1535 1534 1532 1531 1530 1527 1525 1526 1525 1523 1521 1519 1516 1514 1511 1509 1506 1502 1499 1495 1492 1488 1484 1480 1477 1474 1471
1459 1461 1464 1466 1468 1471 1473 1475 1478 1481 1483 1485 1488 1490 1492 1494 1496 1497 1499 1502 1505 1506 1508 1510 1511 1512 1514 1516 1517 1518 1520 1521 1523 1524 1526 1527 1528 1530 1531 1532 1533 1535 1537 1539 1540 1541 1540 1538 1538 1538 1539 1539 1538 1538 1537 1537 1536 1535 1534 1533 1532 1530 1528 1527 1527 1527 1525 1523 1521 1519 1516 1514 1512 1509 1506 1502 1499 1496 1493 1488 1484 1480 1476 1472 1469
1457 1460 1462 1464 1466 1469 1471 1474 1477 1479 1482 1484 1486 1488 1490 1491 1493 1496 1499 1501 1503 1504 1506 1507 1509 1511 1513 1515 1516 1517 1518 1519 1521 1523 1524 1525 1527 1528 1529 1531 1532 1533 1535 1536 1536 1536 1536 1536 1537 1537 1538 1537 1537 1537 1536 1535 1535 1534 1533 1532 1531 1529 1528 1529 1528 1526 1524 1523 1521 1519 1516 1514 1512 1509 1506 1503 1500 1496 1492 1488 1484 1480 1476 1472 1468
1455 1457 1460 1462 1465 1467 1470 1472 1475 1478 1481 1483 1485 1487 1488 1490 1492 1494 1497 1499 1500 1502 1504 1506 1508 1510 1512 1513 1515 1515 1516 1518 1519 1521 1522 1524 1525 1526 1528 1529 1530 1532 1533 1533 1533 1534 1535 1535 1536 1536 1536 1536 1536 1536 1535 1534 1534 1533 1532 1531 1530 1529 1529 1529 1528 1526 1524 1523 1521 1519 1517 1514 1512 1509 1506 1503 1500 1496 1492 1488 1484 1480 1476 1472 1467
1452 1455 1457 1460 1463 1465 1468 1471 1474 1476 1479 1481 1484 1486 1487 1489 1491 1493 1494 1496 1498 1500 1502 1503 1506 1508 1510 1511 1513 1514 1515 1516 1517 1519 1520 1522 1523 1525 1526 1527 1529 1530 1531 1532 1533 1533 1534 1534 1535 1535 1535 1535 1535 1535 1534 1534 1533 1532 1530 1530 1530 1529 1529 1529 1527 1525 1524 1523 1521 1519 1517 1514 1511 1509 1506 1503 1500 1496 1493 1489 1485 1481 1477 1473 1468
1450 1453 1455 1458 1461 1463 1466 1469 1471 1474 1477 1479 1482 1484 1485 1488 1490 1491 1493 1495 1496 1498 1499 1501 1504 1506 1508 1510 1512 1512 1513 1514 1515 1516 1518 1520 1521 1523 1524 1526 1527 1528 1529 1531 1531 1532 1532 1533 1533 1533 1533 1533 1533 1533 1532 1532 1531 1531 1531 1531 1531 1530 1529 1527 1526 1525 1524 1522 1520 1518 1516 1514 1511 1509 1506 1503 1500 1496 1493 1490 1487 1483 1478 1474 1469
1449 1451 1454 1456 1459 1462 1465 1467 1469 1472 1475 1477 1480 1482 1483 1486 1488 1490 1492 1493 1494 1496 1498 1500 1502 1504 1506 1508 1510 1510 1512 1512 1513 1515 1517 1518 1520 1522 1523 1524 1525 1526 1528 1529 1529 1530 1531 1531 1532 1532 1532 1532 1532 1532 1532 1532 1532 1532 1531 1531 1530 1529 1528 1527 1525 1525 1523 1521 1520 1518 1516 1514 1511 1509 1507 1503 1500 1497 1494 1492 1488 1484 1480 1475 1471
1446 1449 1451 1454 1457 1459 1462 1465 1467 1470 1472 1475 1478 1480 1482 1485 1488 1489 1491 1492 1493 1496 1498 1499 1501 1503 1506 1508 1508 1509 1510 1511 1512 1514 1516 1517 1519 1520 1521 1523 1524 1525 1526 1527 1528 1528 1529 1529 1530 1531 1531 1532 1532 1532 1532 1532 1531 1531 1530 1529 1528 1527 1527 1525 1524 1524 1522 1520 1519 1517 1515 1513 1511 1509 1507 1503 1500 1498 1495 1492 1489 1485 1480 1477 1472
1444 1446 1448 1451 1453 1457 1460 1463 1465 1467 1470 1473 1476 1478 1481 1484 1486 1487 1489 1490 1492 1495 1497 1498 1500 1502 1505 1507 1508 1508 1509 1510 1511 1512 1515 1516 1518 1519 1520 1521 1522 1523 1525 1525 1526 1526 1527 1527 1528 1529 1530 1530 1531 1531 1531 1530 1530 1529 1528 1527 1527 1526 1525 1524 1523 1522 1521 1519 1518 1516 1514 1513 1511 1509 1506 1503 1500 1498 1496 1492 1490 1486 1482 1478 1473
1442 1444 1447 1449 1452 1456 1458 1460 1462 1465 1468 1471 1474 1476 1478 1481 1483 1485 1487 1489 1491 1493 1495 1497 1499 1501 1503 1505 1506 1506 1507 1509 1510 1511 1513 1515 1516 1517 1518 1519 1521 1522 1523 1523 1524 1524 1525 1526 1526 1527 1528 1528 1529 1529 1529 1528 1528 1527 1526 1526 1525 1524 1523 1523 1522 1521 1520 1518 1517 1516 1514 1512 1510 1508 1506 1503 1501 1499 1496 1493 1490 1487 1483 1479 1475
1441 1444 1446 1449 1452 1454 1456 1458 1461 1463 1466 1468 1471 1473 1475 1478 1480 1483 1485 1487 1489 1492 1493 1495 1497 1499 1501 1503 1504 1504 1506 1508 1509 1510 1512 1513 1515 1516 1517 1518 1519 1520 1521 1521 1522 1523 1523 1524 1525 1525 1526 1527 1527 1527 1527 1526 1526 1526 1525 1524 1524 1523 1522 1521 1520 1519 1519 1517 1516 1515 1513 1512 1510 1507 1505 1503 1501 1499 1496 1493 1491 1488 1484 1480 1475
1441 1443 1446 1448 1450 1453 1455 1457 1459 1462 1464 1467 1469 1471 1474 1477 1479 1481 1482 1484 1486 1489 1490 1493 1495 1497 1500 1501 1502 1503 1505 1507 1508 1509 1511 1512 1513 1514 1515 1516 1517 1518 1519 1519 1520 1520 1521 1522 1522 1523 1524 1525 1525 1525 1525 1525 1524 1524 1523 1523 1522 1521 1521 1520 1519 1518 1517 1516 1515 1514 1512 1510 1509 1507 1505 1503 1501 1499 1496 1494 1491 1488 1484 1481 1476
1440 1442 1445 1447 1449 1451 1453 1455 1458 1460 1463 1465 1467 1470 1473 1475 1478 1479 1480 1481 1484 1486 1487 1489 1492 1494 1497 1499 1500 1501 1503 1505 1506 1508 1509 1510 1511 1512 1513 1515 1515 1516 1517 1517 1518 1518 1519 1520 1520 1521 1522 1523 1523 1523 1523 1523 1522 1522 1521 1521 1520 1519 1519 1518 1518 1517 1516 1515 1514 1512 1511 1509 1507 1506 1504 1502 1500 1498 1496 1494 1491 1488 1485 1481 1477
1438 1441 1443 1445 1447 1449 1451 1453 1456 1458 1461 1463 1466 1468 1471 1474 1476 1478 1479 1480 1482 1484 1485 1487 1489 1491 1494 1496 1498 1499 1501 1503 1505 1506 1507 1508 1509 1511 1512 1513 1514 1515 1515 1515 1516 1516 1517 1517 1518 1519 1520 1521 1521 1521 1521 1521 1520 1520 1519 1519 1518 1518 1517 1517 1516 1515 1514 1513 1512 1511 1509 1508 1506 1505 1504 1502 1500 1498 1496 1494 1491 1488 1485 1481 1478
1438 1439 1441 1443 1445 1448 1450 1452 1454 1457 1460 1462 1465 1467 1470 1472 1475 1477 1479 1480 1480 1481 1483 1485 1486 1488 1490 1492 1494 1497 1498 1500 1502 1504 1505 1506 1507 1508 1509 1510 1512 1513 1513 1513 1514 1514 1514 1515 1515 1516 1518 1519 1519 1519 1519 1519 1518 1518 1517 1517 1516 1516 1515 1515 1514 1513 1512 1511 1510 1509 1508 1507 1506 1504 1503 1501 1499 1498 1496 1493 1491 1488 1485 1482 1479
1437 1439 1440 1442 1444 1446 1448 1451 1453 1456 1459 1461 1464 1466 1469 1471 1473 1475 1477 1478 1478 1479 1481 1482 1483 1484 1486 1488 1491 1493 1495 1497 1498 1500 1501 1503 1504 1505 1507 1508 1509 1511 1511 1512 1512 1512 1513 1513 1514 1514 1515 1516 1516 1517 1517 1516 1516 1516 1515 1515 1514 1514 1513 1512 1512 1511 1510 1509 1508 1508 1507 1506 1505 1503 1502 1500 1499 1497 1495 1493 1490 1487 1484 1482 1480
1437 1438 1439 1441 1443 1445 1447 1450 1452 1455 1457 1460 1463 1465 1468 1470 1471 1473 1474 1476 1477 1478 1479 1480 1481 1482 1483 1484 1487 1489 1491 1492 1494 1496 1498 1499 1501 1503 1505 1506 1508 1509 1510 1511 1511 1511 1512 1512 1512 1513 1514 1514 1514 1514 1514 1514 1514 1514 1513 1513 1512 1512 1511 1511 1510 1509 1509 1508 1507 1507 1506 1505 1503 1502 1501 1499 1498 1496 1494 1492 1490 1487 1485 1483 1480
1435 1437 1439 1440 1442 1444 1446 1448 1451 1453 1456 1458 1461 1464 1466 1467 1469 1470 1472 1474 1475 1475 1476 1478 1479 1480 1480 1480 1482 1484 1486 1488 1490 1492 1495 1497 1499 1501 1502 1504 1505 1507 1508 1509 1509 1510 1510 1510 1511 1511 1512 1512 1512 1512 1512 1512 1512 1511 1511 1511 1510 1510 1509 1509 1508 1508 1507 1506 1506 1505 1504 1503 1502 1501 1500 1498 1497 1495 1493 1491 1489 1488 1486 1483 1480
1434 1436 1437 1439 1441 1443 1445 1447 1450 1452 1454 1456 1459 1462 1464 1465 1467 1468 1470 1471 1472 1473 1474 1475 1477 1478 1477 1477 1479 1482 1484 1486 1488 1490 1493 1494 1496 1499 1500 1502 1503 1504 1505 1506 1507 1507 1508 1509 1509 1509 1510 1510 1510 1510 1510 1510 1510 1509 1509 1508 1508 1507 1507 1507 1506 1506 1505 1504 1504 1503 1502 1501 1500 1499 1498 1497 1495 1494 1492 1491 1489 1487 1485 1483 1480
1433 1434 1436 1438 1440 1442 1444 1446 1448 1450 1452 1455 1457 1459 1462 1463 1465 1466 1467 1469 1470 1471 1471 1473 1475 1476 1476 1475 1476 1480 1482 1484 1486 1488 1490 1492 1494 1496 1497 1499 1500 1502 1503 1503 1504 1504 1505 1506 1507 1507 1507 1507 1508 1508 1507 1507 1507 1507 1507 1506 1506 1505 1505 1504 1504 1504 1503 1502 1502 1501 1500 1500 1499 1497 1496 1495 1494 1492 1491 1489 1488 1486 1484 1482 1480
1432 1433 1435 1437 1439 1441 1443 1445 1447 1449 1451 1453 1455 1457 1460 1462 1463 1464 1465 1466 1468 1469 1470 1471 1473 1474 1473 1473 1475 1478 1480 1482 1484 1486 1488 1490 1492 1493 1495 1496 1497 1499 1500 1501 1501 1502 1503 1504 1504 1505 1505 1505 1505 1505 1505 1505 1504 1504 1504 1503 1503 1503 1503 1502 1502 1501 1501 1500 1500 1499 1498 1498 1497 1496 1495 1494 1492 1491 1490 1488 1486 1485 1483 1481 1479
1432 1432 1434 1436 1438 1440 1442 1443 1445 1447 1449 1451 1453 1456 1457 1459 1461 1462 1463 1465 1466 1467 1468 1469 1471 1471 1472 1472 1474 1476 1478 1480 1482 1484 1486 1488 1490 1491 1493 1494 1494 1496 1497 1497 1498 1499 1501 1501 1502 1502 1502 1502 1503 1503 1503 1503 1502 1502 1502 1501 1501 1500 1500 1500 1499 1499 1499 1498 1498 1497 1496 1496 1495 1494 1493 1492 1491 1490 1488 1487 1485 1484 1482 1480 1478
1431 1432 1433 1435 1437 1439 1441 1442 1444 1446 1448 1450 1452 1454 1456 1457 1459 1460 1462 1463 1464 1465 1466 1467 1469 1470 1470 1470 1471 1473 1475 1478 1480 1482 1484 1486 1488 1489 1491 1492 1492 1493 1494 1494 1495 1497 1498 1499 1499 1499 1499 1500 1500 1500 1500 1500 1500 1500 1499 1499 1498 1498 1498 1497 1497 1496 1496 1496 1495 1495 1494 1494 1493 1492 1491 1490 1489 1488 1487 1485 1484 1482 1481 1479 1477
1431 1431 1432 1434 1436 1437 1439 1441 1443 1445 1446 1448 1450 1452 1453 1455 1457 1458 1460 1461 1462 1463 1464 1466 1467 1468 1469 1469 1469 1471 1473 1475 1477 1479 1481 1483 1485 1487 1488 1489 1490 1490 1491 1492 1493 1494 1495 1496 1496 1496 1497 1497 1497 1497 1497 1497 1497 1497 1497 1496 1496 1496 1495 1495 1495 1494 1494 1493 1493 1492 1492 1491 1490 1490 1489 1487 1486 1485 1484 1483 1481 1480 1478 1477 1475
1431 1431 1431 1433 1435 1436 1438 1440 1441 1443 1445 1446 1448 1450 1452 1453 1455 1456 1458 1459 1460 1462 1463 1464 1465 1466 1467 1468 1468 1468 1470 1472 1474 1475 1477 1479 1481 1484 1485 1486 1487 1488 1489 1489 1490 1491 1492 1493 1493 1493 1494 1493 1493 1494 1494 1494 1494 1494 1494 1493 1493 1493 1493 1493 1492 1492 1492 1491 1490 1489 1489 1488 1488 1487 1486 1485 1484 1483 1482 1481 1479 1478 1476 1475 1473
1430 1431 1431 1432 1433 1435 1437 1438 1439 1441 1442 1444 1445 1447 1449 1450 1452 1454 1456 1457 1458 1459 1461 1462 1463 1464 1465 1466 1466 1466 1467 1469 1471 1473 1475 1477 1479 1481 1482 1483 1484 1485 1486 1487 1488 1489 1490 1490 1490 1490 1490 1490 1490 1490 1491 1491 1491 1491 1490 1490 1490 1490 1490 1490 1490 1490 1489 1489 1488 1487 1486 1485 1485 1484 1484 1483 1482 1481 1480 1479 1478 1476 1475 1474 1472
1429 1429 1430 1431 1432 1433 1434 1435 1436 1438 1439 1441 1442 1444 1445 1446 1448 1451 1453 1453 1454 1456 1458 1460 1461 1462 1463 1464 1464 1464 1465 1466 1468 1471 1473 1475 1476 1478 1478 1480 1481 1482 1483 1484 1485 1486 1486 1487 1487 1487 1487 1486 1486 1487 1487 1487 1487 1487 1487 1487 1487 1487 1487 1487 1487 1487 1486 1486 1485 1484 1483 1483 1482 1481 1481 1480 1480 1479 1478 1477 1475 1474 1473 1471 1470
1425 1426 1428 1429 1430 1431 1432 1433 1434 1436 1437 1439 1440 1441 1443 1444 1446 1448 1450 1450 1452 1454 1456 1457 1458 1459 1459 1460 1462 1462 1463 1464 1465 1467 1470 1471 1473 1474 1475 1477 1478 1479 1480 1481 1481 1482 1483 1483 1484 1484 1483 1483 1483 1483 1484 1484 1484 1484 1484 1484 1484 1483 1484 1484 1484 1484 1483 1483 1482 1481 1481 1480 1479 1479 1478 1478 1477 1476 1475 1474 1473 1471 1470 1469 1467
1423 1425 1426 1427 1428 1429 1430 1432 1433 1434 1436 1437 1438 1439 1441 1443 1445 1447 1448 1449 1451 1452 1453 1454 1455 1456 1456 1458 1459 1460 1461 1462 1463 1465 1467 1468 1470 1471 1473 1474 1475 1476 1477 1477 1478 1479 1480 1480 1480 1480 1480 1480 1479 1480 1480 1480 1480 1480 1481 1480 1480 1480 1480 1480 1480 1480 1480 1479 1479 1478 1478 1477 1476 1476 1475 1475 1474 1473 1472 1471 1470 1469 1467 1466 1465